Regional Weather Roundup
Issued by NWS Wakefield, VA

Home | Current Version | Previous Version | Text Only | Print | Product List | Glossary Off
Versions: 1 2 3 4 5 6 7 8 9 10 11 12 13 14 15 16 17 18 19 20 21 22 23 24 25 26 27

000
ASUS41 KAKQ 291115
RWRAKQ

REGIONAL WEATHER ROUNDUP
NATIONAL WEATHER SERVICE WAKEFIELD VA
700 AM EDT MON MAY 29 2017

Note: "fair" indicates few or no clouds below 12,000 feet with no
significant weather and/or obstructions to visibility. * = Denotes
station may not report precipitation (e.g., rain,snow,etc.),
thunder or fog.

VAZ042-051-052>054-056-291200-
NORTHERN VIRGINIA

CITY           SKY/WX    TMP DP  RH WIND       PRES   REMARKS
WASH NATIONAL  DRIZZLE   64  64 100 NE6       29.84R FOG
DULLES         FOG       63  63 100 E5        29.83R VSB 1/2
FORT BELVOIR   CLOUDY    64  63  96 CALM      29.83R
QUANTICO       FOG       66  66 100 E5        29.83F VSB 3/4
FREDERICKSBRG* CLOUDY    67  67 100 CALM      29.82S
STAFFORD*      CLOUDY    65  65 100 CALM      29.87S FOG
WARRENTON      CLOUDY    66  64  91 CALM      29.83R FOG
CULPEPER*      CLOUDY    66  66 100 CALM      29.84R FOG
MANASSAS*      FOG       64  64 100 CALM      29.84R VSB 1
LEESBURG*      FOG       64  64 100 SE3       29.84R VSB 3/4
WINCHESTER     FOG       61  61 100 S5        29.83S VSB 1/4
FRONT ROYAL*   CLOUDY    63  63 100 SW5       29.83R
LURAY*         CLOUDY    63  63 100 CALM      29.84R FOG
$$

VAZ048-049-060>072-079>083-291200-
CENTRAL AND SOUTH CENTRAL VIRGINIA

CITY           SKY/WX    TMP DP  RH WIND       PRES   REMARKS
RICHMOND       PTSUNNY   69  66  90 W5        29.85R
CHESTERFIELD*  NOT AVBL
PETERSBURG*    CLOUDY    66  65  97 CALM      29.86R
HANOVER        CLOUDY    67  63  87 W5        29.86R
TAPPAHANNOCK*  CLOUDY    67  67 100 W3        29.85R FOG
QUINTON*       CLOUDY    66  66 100 MISG      29.85R FOG
CHARLOTTSVILLE FOG       65  64  97 SW3       29.84R VSB 1/4
GORDONSVILLE*  CLOUDY    64  64 100 SW6       29.83S
ORANGE*        CLOUDY    63  63 100 CALM      29.84R FOG
LOUISA*        CLOUDY    68  68 100 CALM      29.84R FOG
BUMPASS*       CLOUDY    65  65 100 SW3       29.84R
FARMVILLE*     FOG       65  62  91 CALM      29.85R VSB<1/4
CREWE*         CLOUDY    64  60  87 CALM      29.86R VSB 1/4
FORT PICKETT*  CLOUDY    63  59  88 CALM      29.86R VSB<1/4
CHASE CITY*    FAIR      63  62  95 CALM      29.87R
CLARKSVILLE*   FAIR      63  63 100 S3        29.88R
SOUTH HILL*    CLOUDY    62  62 100 CALM      29.92R VSB<1/4
LAWRENCEVILLE* CLOUDY    63  62  97 CALM      29.87R VSB 3/4
EMPORIA*       FOG       64  64 100 CALM      29.88R VSB 1/4
$$

VAZ088>098-291200-
SOUTHEAST VIRGINIA

CITY           SKY/WX    TMP DP  RH WIND       PRES   REMARKS
NORFOLK        CLOUDY    69  67  93 CALM      29.84R FOG
VIRGINIA BEACH PTSUNNY   66  65  96 CALM      29.83R FOG
NORFOLK NAVAL  CLOUDY    70  66  87 W5        29.86R FOG
WEST POINT*    CLOUDY    68  67  98 W6        29.86R
SALUDA*        CLOUDY    67  67 100 W3        29.83R
NEWPORT NEWS   CLOUDY    69  67  93 W6        29.84R
LANGLEY AFB    CLOUDY    68  68 100 CALM      29.83R
FORT EUSTIS    PTSUNNY   69  66  91 W5        29.83R
WILLIAMSBURG*  CLOUDY    70  70 100 CALM      29.86R
HR EXEC AP*    CLOUDY    63  61  94 CALM      29.84R
FRANKLIN*      FOG       67  66  99 CALM      29.86R VSB 1/2
US460-WAKEFLD  CLOUDY    68  67  96 W3        29.86R FOG
$$

VAZ020-022-025-037-045-291200-
WEST CENTRAL AND SOUTHWEST VIRGINIA

CITY           SKY/WX    TMP DP  RH WIND       PRES   REMARKS
STAUNTON*      CLOUDY    59  59 100 CALM      29.88R
WAYNESBORO*    SUNNY     61  61 100 CALM      29.88R
HOT SPRINGS VA CLOUDY    57  55  94 W15       29.97R
LYNCHBURG      SUNNY     63  62  97 SW5       29.89R
DANVILLE       CLEAR     62  62 100 W3        29.91R
SOUTH BOSTON*    N/A     64  62  95 W3        29.88R
MARTINSVILLE   CLEAR     58  57  97 CALM      29.95R
ROANOKE        PTCLDY    67  60  78 W5        29.91R
BLACKSBURG     CLEAR     65  58  76 W6        29.97R
DUBLIN*        CLEAR     67  55  66 W6        29.98R
MARION*        CLOUDY    64  61  90 CALM      30.02R
HILLSVILLE*    CLEAR     62  56  79 CALM      29.99R
RICHLANDS*     CLOUDY    62  60  93 W7        30.01R
WISE*          MOCLDY    61  61 100 CALM      30.04R
ABINGDON*      CLOUDY    64  64 100 W7        30.00R
$$

MDZ021>025-VAZ099-100-291200-
SOUTHERN MARYLAND AND THE DELMARVA PENINSULA

CITY           SKY/WX    TMP DP  RH WIND       PRES   REMARKS
PATUXENT RIVER CLOUDY    64  64 100 N5        29.83R
BAY BRIDGE APT CLOUDY    63  61  94 NE5       29.83R
LEONARDTOWN    CLOUDY    63  61  94 CALM      29.85R
DOVER          CLOUDY    61  61 100 NE5       29.83R FOG
GEORGETOWN     CLOUDY    62  60  93 N3        29.83R FOG
EASTON         CLOUDY    63  59  88 NE6       29.86R FOG
CAMBRIDGE      CLOUDY    63  61  94 VRB5      29.82S
SALISBURY      CLOUDY    62  62 100 N6        29.82S
OCEAN CITY     CLOUDY    61  60  97 N9        29.83R
WALLOPS ISLAND CLOUDY    63  63 100 NW7       29.82R
ACCOMACK*      CLOUDY    67  23  19 NW6       29.82S
$$

NCZ012>017-030>032-291200-
NORTH CENTRAL AND EASTERN NORTH CAROLINA

CITY           SKY/WX    TMP DP  RH WIND       PRES   REMARKS
ROANOKE RAPIDS FAIR      64  64 100 CALM      29.87R FOG
RALEIGH        PTSUNNY   66  63  90 SW3       29.90R
ELIZABETH CITY FOG       70  70 100 W8        29.85R VSB 1
AHOSKIE*       NOT AVBL
EDENTON*       SUNNY     73  68  84 CALM      29.87R
CURRITUCK*     FOG      N/A N/A N/A CALM      29.86R VSB 1/4
KILL DEVIL HLS FOG       68  68 100 CALM      29.84R VSB 1/4
MANTEO         SUNNY     71  70  98 NW3       29.86R
CAPE HATTERAS  SUNNY     77  72  84 W9G17     29.86R
TARBORO*       NOT AVBL
GOLDSBORO      SUNNY     71  71 100 SW5       29.88R
WASHINGTON     SUNNY     71  69  93 W3        29.89R
GREENVILLE     SUNNY     70  70 100 SW3       29.90R
NEW BERN       SUNNY     72  71  97 SW6       29.90R FOG
WILMINGTON     SUNNY     71  68  90 W8        29.92R
$$

VAZ048-291200-
ELSEWHERE

CITY           SKY/WX    TMP DP  RH WIND       PRES   REMARKS
HARRISBURG PA  DRIZZLE   60  59  96 SE8       29.83S FOG
BALTIMORE      CLOUDY    62  62 100 CALM      29.85R
ANNAPOLIS      CLOUDY    65  63  93 CALM      29.84R
ANDREWS AFB    FOG       63  63 100 E6        29.83R VSB 1/2
PHILADELPHIA   CLOUDY    60  57  89 E9        29.86R
HENDERSON NC   SUNNY     63  58  85 W3        29.89R
GREENSBORO     PTCLDY    65  62  90 W7        29.92R
ROCKY MOUNT    SUNNY     67  66  97 S5        29.88R
$$

VAZ100-291200-
MARINE

STATION/POSITION TIME  TEMP    WIND        PRES    WAVE   SWELL
                       AIR SEA DIR/SP/G            HT/PER HT/PER
                 (UTC) (F)     (DEG/KT/KT) (MB)    (FT/S) (FT/S)
CAPE MAY NJ      1042   60 62   20/  3/  5 1010.0R
LEWES DE         1042   60 64   20/  8/  9 1010.2R
15NM E FENWICK I 1050   60 59  320/ 12/ 14 1009.8R   5/ 7   3/ 7
WACHAPREAGUE VA  1048   66 70  280/  2/  5 1009.4R
THOMAS POINT MD  1100   62 65   40/  6/  6   N/A
GOOSES REEF MD   1100   64 63   50/  8/ 10 1010.9    1
COVE POINT MD    1048   64      10/  7/  9 1010.6R
SOLOMONS ISLAND  1048   64 68  330/  4/  5   N/A
BISHOPS HEAD MD  1042   64 70  360/  5/  9 1010.0R
PINEY POINT MD   1048          340/  5/  6   N/A
POTOMAC MD       1100   66 68  310/  6/  6 1009.2    0
CAMBRIDGE MD     1042   62 70                N/A
LEWISETTA VA     1048   65 70  310/  3/  4 1010.0R
RAPPAHANNOCK LGT 1048          340/  6/  6 1010.5R
STINGRAY PT      1050   68     290/  6/  6 1009.7R
YORK RVR RNG VA  1048   68     300/  5/  5 1009.6R
YORKTOWN VA      1048   68 70  240/  3/  4 1010.0R
JAMESTOWN VA     1100   69 73  290/ 10/ 12   N/A     0
DOMINION TERM VA 1048   68     300/  8/  9 1010.6R
KIPTOPEKE VA     1036      67  300/  5/  6   N/A
CHES BAY BRIDGE  1048   68 69  290/  5/  6 1010.2R
CAPE HENRY VA    1036   68     290/  2/  4   N/A
WILLOUBY STN VA  1048   68     310/  3/  3 1010.4R
S CRANEY ISL VA  1048   68     290/  3/  4 1010.1R
CAPE HENRY BUOY  1042      65                N/A     2/ 6
1ST LANDING BUOY 1100   69 68              1010.6    1
CAPE CHARLES BUO 1051      64                N/A     2/ 6
64NM E OF VA BCH 1050   64 64  300/  6/  6 1010.5R   4/ 6   3/ 6
DUCK PIER NC     1036   67 68  150/  4/  4 1009.7R
44100 DUCK FRF   1035      65                N/A     2/ 7
44056 DUCK FRF   1030      68                N/A     2/ 6
OREGON INLET NC  1036   68 65   10/  2/  5 1010.2R
HATTERAS NC      1036   75 74  270/ 15/ 18 1010.6R
DIAMOND SHLS NC  1050   75 76  270/ 16/ 17 1010.8R   5/ 6   2/10
CAPE LOOKOUT NC  1100   74     280/ 12/ 14 1012.0R
$$




USA.gov is the U.S. government's official web portal to all federal, state and local government web resources and services.